Miami, FL

12:20 PM EDT on June 23, 2017 (GMT -0400)
Miami International

Weather History for KMIA - June, 2014

Change the Weather History Date:

Monday, June 9, 2014

  Actual Average Record
Temperature  
Mean Temperature 81 °F 82 °F  
Max Temperature 90 °F 89 °F 94 °F (1981)
Min Temperature 72 °F 76 °F 67 °F (1935)
Degree Days  
Heating Degree Days 0 0  
Month to date heating degree days 0 0  
Since 1 June heating degree days 0 0  
Since 1 July heating degree days 61 128  
Cooling Degree Days 16 17  
Month to date cooling degree days 142 153  
Year to date cooling degree days 1716 1509  
Since 1 June cooling degree days 142 153  
Growing Degree Days 31 (Base 50)    
Moisture  
Dew Point 71 °F    
Average Humidity 72    
Maximum Humidity 94    
Minimum Humidity 50    
Precipitation  
Precipitation 0.58 in 0.32 in 5.89 in (1997)
Month to date precipitation 3.66 2.64  
Year to date precipitation 13.81 17.99  
Snow  
Snow 0.00 in - - ()
Month to date snowfall 0.0  
Since 1 June snowfall 0.0  
Since 1 July snowfall 0.0  
Snow Depth 0.00 in    
Sea Level Pressure  
Sea Level Pressure 29.98 in    
Wind  
Wind Speed 4 mph (South)    
Max Wind Speed 21 mph    
Max Gust Speed 29 mph    
Visibility 6 miles    
Events Fog , Rain , Thunderstorm    
T = Trace of Precipitation, MM = Missing Value Source: NWS Daily Summary

Daily Weather History Graph

Daily Weather History Graph

Search for Another Location

Airport or City:

Trip Planner

Search our weather history database for the weather conditions in past years. The results will help you decide how hot, cold, wet, or windy it might be!

Date:

Astronomy

Jun. 09, 2014 Rise Set
Actual Time 6:29 AM EDT 8:11 PM EDT
Civil Twilight 6:03 AM EDT 8:37 PM EDT
Nautical Twilight 5:32 AM EDT 9:08 PM EDT
Astronomical Twilight 4:59 AM EDT 9:41 PM EDT
Moon 4:48 PM EDT (6/9) 3:34 AM EDT (6/9)
Length of Visible Light 14h 34m
Length of Day
13h 42m
Waxing Gibbous, 85% of the Moon is Illuminated
Jun 9
Waxing Gibbous
Jun 13
Full
Jun 19
Last Quarter
Jun 27
New
Jul 5
First Quarter

Hourly Weather History & Observations

Time (EDT) Temp. Heat Index Dew Point Humidity Pressure Visibility Wind Dir Wind Speed Gust Speed Precip Events Conditions
12:53 AM 73.0 °F - 71.1 °F 93% 30.01 in 10.0 mi Calm Calm - N/A   Mostly Cloudy
1:48 AM 75.2 °F - 71.6 °F 89% 29.98 in 6.0 mi WNW 4.6 mph - N/A   Smoke
2:02 AM 75.2 °F - 69.8 °F 83% 29.98 in 6.0 mi NW 4.6 mph - N/A   Haze
2:40 AM 73.4 °F - 69.8 °F 88% 29.95 in 3.0 mi Calm Calm - N/A   Overcast
2:53 AM 73.4 °F - 69.8 °F 88% 29.95 in 3.0 mi Calm Calm - N/A   Overcast
3:53 AM 72.0 °F - 70.0 °F 93% 29.93 in 3.0 mi SSE 3.5 mph - N/A   Overcast
4:53 AM 73.4 °F - 69.8 °F 88% 29.92 in 3.0 mi SE 3.5 mph - N/A   Overcast
5:34 AM 71.6 °F - 69.8 °F 94% 29.93 in 2.0 mi SSE 3.5 mph - N/A   Overcast
5:53 AM 73.4 °F - 69.8 °F 88% 29.94 in 2.0 mi Calm Calm - N/A   Overcast
6:53 AM 73.4 °F - 71.6 °F 94% 29.94 in 0.2 mi Calm Calm - N/A   Overcast
7:08 AM 73.0 °F - 71.1 °F 93% 29.95 in 0.2 mi South 3.5 mph - N/A   Overcast
7:53 AM 75.9 °F - 73.9 °F 94% 29.97 in 0.5 mi SE 3.5 mph - N/A Fog Fog
8:14 AM 78.1 °F - 73.9 °F 87% 29.98 in 0.5 mi South 4.6 mph - N/A Fog Fog
8:53 AM 81.0 °F 86.2 °F 73.9 °F 79% 29.99 in 0.5 mi SSE 5.8 mph - N/A   Smoke
9:19 AM 82.9 °F 89.4 °F 73.9 °F 74% 29.99 in 1.5 mi South 5.8 mph - N/A   Smoke
9:46 AM 84.0 °F 89.0 °F 71.1 °F 65% 29.99 in 6.0 mi SW 8.1 mph - N/A   Smoke
9:53 AM 84.9 °F 89.4 °F 70.0 °F 61% 29.99 in 6.0 mi SW 6.9 mph - N/A   Smoke
10:53 AM 84.2 °F 88.4 °F 69.8 °F 62% 30.00 in 7.0 mi Variable 3.5 mph - N/A   Partly Cloudy
11:53 AM 87.1 °F 89.9 °F 66.9 °F 51% 30.01 in 10.0 mi South 5.8 mph - N/A   Scattered Clouds
12:53 PM 88.0 °F 93.8 °F 71.1 °F 57% 30.00 in 10.0 mi Calm Calm - N/A   Scattered Clouds
1:53 PM 89.1 °F 98.0 °F 73.9 °F 61% 29.98 in 10.0 mi SSE 10.4 mph - N/A   Scattered Clouds
2:23 PM 89.1 °F 99.1 °F 75.0 °F 63% 29.97 in 10.0 mi SE 12.7 mph 19.6 mph N/A Thunderstorm Thunderstorm
3:15 PM 87.8 °F 95.6 °F 73.4 °F 62% 29.96 in 10.0 mi SSE 10.4 mph 26.5 mph N/A   Mostly Cloudy
4:31 PM 82.9 °F 85.8 °F 68.0 °F 60% 29.96 in 10.0 mi WSW 15.0 mph 28.8 mph N/A   Mostly Cloudy
4:45 PM 79.0 °F - 70.0 °F 74% 29.97 in 4.0 mi West 10.4 mph 25.3 mph 0.26 in Rain Heavy Rain
4:53 PM 78.1 °F - 71.1 °F 79% 29.98 in 5.0 mi WNW 9.2 mph - 0.37 in Rain Heavy Rain
5:17 PM 77.0 °F - 72.0 °F 84% 29.98 in 7.0 mi WNW 6.9 mph - 0.17 in Rain Rain
5:53 PM 75.9 °F - 72.0 °F 87% 29.99 in 10.0 mi Variable 5.8 mph - 0.21 in   Mostly Cloudy
6:53 PM 78.1 °F - 71.1 °F 79% 29.97 in 10.0 mi Calm Calm - N/A   Mostly Cloudy
7:53 PM 79.0 °F - 71.1 °F 77% 29.98 in 10.0 mi ESE 4.6 mph - N/A   Scattered Clouds
8:53 PM 78.1 °F - 72.0 °F 81% 29.99 in 10.0 mi Variable 3.5 mph - N/A   Scattered Clouds
9:53 PM 77.0 °F - 73.0 °F 88% 30.01 in 10.0 mi Calm Calm - N/A   Partly Cloudy
10:53 PM 77.0 °F - 72.0 °F 84% 30.02 in 10.0 mi Calm Calm - N/A   Partly Cloudy
11:53 PM 75.9 °F - 73.0 °F 91% 30.01 in 10.0 mi Calm Calm - N/A   Partly Cloudy